Temperature
9 9 9 9 9 9 9 9 9 9 9 9 9 9 9 9 9 9 9 9 9 10 10 10 10 10 10 10 10 10 10 9 9 9 8 8 8 8 8 8 8 8 8
9 8 9 9 9 9 9 9 9 9 9 9 9 9 9 9 9 9 9 9 9 9 9 9 9 9 9 9 9 9 9 9 9 8 7 7 7 7 8 8 8 8 8
8 8 8 9 9 9 9 9 9 9 8 9 9 8 8 8 9 9 9 9 9 9 9 9 9 9 9 9 9 9 9 8 8 8 7 7 8 6 7 7 7 7 7
8 8 8 8 8 9 9 9 8 8 8 8 8 8 8 8 8 8 8 9 9 9 8 8 8 8 8 8 8 8 8 8 8 7 7 7 7 6 6 6 7 7 7
8 8 8 8 8 9 9 9 8 8 8 8 8 8 8 8 8 8 8 8 8 8 8 8 8 8 8 8 8 8 8 7 7 7 7 7 7 6 6 6 6 6 6
8 8 8 8 8 8 8 8 8 8 8 8 8 8 8 8 8 7 7 8 8 8 7 7 7 7 7 7 7 7 7 7 7 7 7 6 6 6 5 5 5 5 5
7 7 8 8 8 8 8 8 8 8 8 7 7 8 8 8 7 7 7 7 7 7 7 7 7 7 7 7 7 7 7 7 6 6 6 6 6 6 5 5 4 4 5
7 7 7 7 7 7 8 8 7 8 7 7 7 7 7 7 7 7 7 7 7 7 7 7 7 7 6 7 6 6 6 6 6 6 6 6 5 5 5 5 4 4 4
6 7 7 7 7 7 7 7 7 7 7 7 7 7 7 7 7 6 6 6 6 6 6 6 6 6 6 6 6 6 6 6 5 5 5 5 5 5 5 4 4 3 3
6 6 6 7 7 7 7 7 7 7 7 6 6 6 6 6 6 6 6 6 6 6 6 5 5 5 5 5 5 5 5 5 5 5 5 5 4 4 4 4 4 4 3
6 6 6 6 6 6 6 6 6 6 6 6 6 6 6 6 6 5 5 5 5 5 5 5 5 5 5 5 5 5 5 5 4 4 4 4 4 4 4 4 3 3 3
5 5 6 6 6 6 6 6 6 6 6 5 5 5 5 5 5 5 5 5 5 5 5 4 4 4 4 4 4 4 4 4 4 4 4 4 4 3 3 3 3 3 3
5 5 5 5 5 5 5 5 5 5 5 5 5 5 5 5 5 5 4 4 4 4 4 4 4 4 4 3 3 3 3 3 3 3 3 3 3 3 3 3 2 2 2
5 5 5 5 5 5 5 5 5 5 4 4 4 4 4 4 4 4 4 4 4 4 4 3 3 3 3 3 3 3 3 3 3 3 3 3 3 2 2 2 2 2 2
4 4 4 4 4 4 4 4 4 4 4 4 4 4 4 4 4 4 4 3 3 3 3 3 3 3 3 3 3 3 3 3 2 2 2 2 2 2 2 2 2 1 1
4 4 4 4 4 4 4 4 4 4 4 3 3 3 3 3 3 3 3 3 3 3 3 2 2 2 2 2 2 2 2 2 2 2 2 2 2 2 2 2 1 1 1
4 4 4 4 4 4 4 4 4 3 3 3 3 3 3 3 3 3 2 2 2 2 2 2 2 2 2 2 2 2 1 1 1 1 1 1 1 1 1 1 1 1 0
3 3 4 4 3 3 3 3 3 3 3 3 3 3 3 2 2 2 2 2 2 2 2 1 1 1 1 1 1 1 1 1 1 1 1 1 1 1 0 0 0 0 0
3 3 3 3 3 3 3 3 3 3 2 2 2 2 2 2 2 2 2 1 1 1 1 1 1 1 1 1 1 1 1 1 1 0 0 0 0 0 -0 -0 -0 -0 -0
3 3 3 3 3 3 2 2 2 2 2 2 2 2 2 1 1 1 1 1 1 1 1 0 0 0 0 0 0 0 0 0 -0 -0 -0 -0 -0 -0 -1 -1 -1 -1 -1
2 2 2 2 2 2 2 2 2 2 2 1 1 1 1 1 1 1 1 0 0 0 -0 -0 -0 -0 -0 -0 -0 -0 -0 -1 -1 -1 -1 -1 -1 -1 -1 -1 -1 -1 -1
2 2 2 2 2 2 1 1 1 1 1 1 1 1 1 0 0 0 0 -0 -0 -0 -1 -1 -1 -1 -1 -1 -1 -1 -1 -1 -1 -1 -1 -1 -1 -1 -1 -1 -1 -2 -2
1 1 1 1 1 1 1 1 1 1 1 0 0 0 0 0 -0 -0 -1 -1 -1 -1 -1 -1 -1 -1 -1 -1 -1 -1 -1 -1 -1 -1 -1 -1 -1 -2 -2 -2 -2 -2 -2
1 1 1 0 0 0 0 0 0 0 0 0 -0 -0 -0 -0 -1 -1 -1 -1 -1 -1 -1 -1 -1 -1 -1 -1 -2 -2 -2 -2 -2 -2 -2 -2 -2 -2 -2 -2 -2 -2 -3
0 0 0 0 0 0 0 -0 -0 -0 -0 -1 -1 -1 -1 -1 -1 -1 -1 -1 -1 -1 -1 -1 -1 -1 -1 -1 -2 -2 -2 -2 -2 -2 -2 -2 -2 -2 -3 -3 -3 -3 -3
-0 -0 -0 -1 -0 -0 -0 -0 -1 -1 -1 -1 -1 -1 -1 -1 -1 -1 -1 -1 -1 -2 -2 -2 -2 -2 -2 -2 -2 -2 -2 -3 -3 -3 -3 -3 -3 -3 -3 -3 -3 -3 -3
Wind_Speed
4 3 3 3 3 3 4 5 5 4 4 4 4 3 3 3 3 3 3 4 4 4 3 3 3 3 3 3 3 3 3 3 2 2 1 1 2 2 1 1 1 1 0
2 1 2 3 3 4 4 5 5 5 4 4 3 2 3 2 2 3 3 3 4 4 3 3 3 3 3 4 4 4 3 2 2 2 2 2 3 2 2 2 2 1 1
2 2 2 2 3 4 4 4 5 5 4 4 4 3 2 2 2 2 2 2 3 3 3 3 3 3 4 3 4 4 4 3 2 2 2 2 2 1 3 3 3 2 2
2 2 2 2 2 3 3 4 4 4 4 4 5 6 4 3 2 2 2 2 2 2 3 3 4 4 3 4 4 4 4 5 4 3 2 2 1 2 2 3 3 3 4
2 2 2 2 2 2 3 3 4 4 4 4 5 5 4 3 2 2 3 2 2 2 3 3 3 3 3 3 4 4 4 4 4 3 3 2 2 4 3 4 4 4 4
2 1 1 1 1 1 2 3 3 3 3 4 4 5 5 4 3 3 3 2 2 2 3 3 3 3 3 4 4 4 4 4 4 4 4 3 3 4 4 5 5 5 4
1 1 1 1 1 2 2 2 3 3 3 3 4 4 4 4 4 4 4 3 3 2 3 3 3 3 3 3 3 3 3 4 4 4 4 4 4 3 4 5 5 5 4
1 1 1 1 1 2 2 3 4 3 3 3 3 3 3 3 3 3 4 4 3 2 3 3 3 3 3 3 3 3 4 4 4 4 4 3 4 4 4 4 4 5 5
1 2 2 1 1 1 2 3 4 4 3 3 3 3 3 3 3 3 3 3 2 2 3 3 3 3 3 3 3 3 4 4 4 4 4 4 4 4 4 4 5 5 6
2 2 1 1 0 1 2 3 3 4 4 3 3 2 3 3 3 3 3 3 3 3 3 3 3 3 3 3 3 3 4 4 4 4 5 5 4 4 4 4 4 5 6
2 2 1 1 0 1 1 1 2 2 3 3 3 2 2 3 3 3 3 3 3 3 3 4 3 3 3 3 3 4 4 5 5 5 5 6 5 4 4 4 5 5 5
2 2 1 1 1 1 1 1 2 2 2 2 2 2 2 2 3 3 3 3 4 4 4 4 4 4 4 4 4 5 5 6 6 6 6 6 5 6 5 5 6 6 6
2 1 1 1 1 1 2 2 2 2 2 2 2 2 2 3 3 3 3 3 3 3 4 4 4 4 5 5 5 5 6 6 6 6 7 7 7 7 6 6 6 6 6
2 1 2 2 2 2 2 2 2 2 2 2 2 2 2 3 2 2 2 3 3 4 4 4 4 5 5 5 5 5 6 6 6 7 7 7 7 8 7 6 7 6 7
2 2 3 3 2 2 2 3 2 2 2 2 3 3 2 2 2 2 2 3 3 3 4 4 4 4 5 5 5 5 6 6 6 7 7 7 8 8 8 7 7 7 6
4 3 3 4 4 4 3 3 3 3 3 3 3 3 2 2 2 3 3 3 3 3 3 4 4 5 4 5 7 6 6 6 7 7 7 7 7 8 10 11 10 10 9
5 4 5 5 5 4 4 4 3 3 3 3 3 3 3 3 3 2 3 3 3 3 4 4 5 5 6 6 8 8 7 7 7 7 6 6 6 8 7 9 10 11 12
4 4 4 4 4 4 4 3 3 3 3 3 3 3 3 3 3 3 3 3 3 4 4 5 5 5 6 6 7 8 7 7 7 7 7 7 7 7 7 7 8 9 9
4 4 4 4 3 3 3 3 3 3 3 3 4 3 3 3 3 4 4 3 3 4 4 5 5 6 6 6 7 7 5 6 7 7 7 7 7 8 8 8 8 8 7
3 3 3 3 2 2 2 3 3 3 4 4 4 4 4 4 4 4 4 3 4 4 4 5 5 6 6 6 7 7 5 6 6 6 6 7 8 8 9 8 8 8 7
4 3 2 2 2 2 2 3 3 4 4 3 3 3 4 4 4 4 4 3 3 4 4 5 5 5 6 6 7 7 5 6 6 5 5 5 8 9 9 9 8 8 8
3 3 2 2 2 2 2 3 4 4 3 3 3 3 4 3 3 3 3 3 4 4 4 4 5 4 5 6 6 8 8 7 6 6 5 5 7 8 9 8 8 9 8
3 2 2 2 2 2 3 3 4 3 3 3 4 3 3 3 3 4 4 4 4 4 4 4 4 4 4 5 7 7 8 8 7 6 7 7 7 7 6 7 8 8 6
3 3 2 3 3 3 3 4 4 3 3 4 4 4 4 4 4 3 4 4 4 4 4 5 5 5 5 4 4 4 5 6 6 6 6 7 7 6 6 6 6 5 5
4 3 3 3 4 4 4 4 4 3 4 4 4 4 4 4 4 4 4 5 5 5 5 5 5 5 6 6 7 6 5 5 5 5 5 4 4 4 4 4 4 4 5
4 3 4 4 4 4 4 4 4 4 4 4 4 4 4 4 4 4 4 5 6 7 8 8 7 6 7 8 8 8 8 8 7 5 5 5 5 5 5 5 5 4 5
Wind_Direction
268 248 233 230 223 214 199 188 192 186 177 166 167 167 170 167 169 169 167 162 158 154 164 167 168 176 186 184 173 158 153 151 149 158 162 183 188 196 208 208 179 134 207
275 236 215 214 213 209 201 186 190 187 185 174 166 173 166 174 171 168 167 168 162 156 170 177 175 181 187 183 179 170 170 167 195 209 198 213 211 201 216 226 228 235 251
245 223 210 216 209 203 204 193 188 185 182 166 152 139 143 145 149 159 163 162 157 160 168 183 184 186 195 191 190 186 189 190 201 220 232 236 234 228 214 229 232 238 248
256 231 217 217 219 206 200 194 183 178 177 168 166 167 175 184 189 175 163 151 150 160 171 184 190 189 195 195 196 202 200 195 201 201 231 269 288 247 236 223 231 248 257
261 237 227 215 212 196 191 182 172 167 170 180 177 178 182 178 154 158 159 154 150 172 175 183 190 190 194 196 195 200 206 205 206 208 210 219 234 251 248 257 255 252 251
262 239 224 194 172 169 173 168 165 169 178 185 185 183 180 165 163 178 177 179 171 174 178 182 191 195 192 195 196 200 208 212 209 209 214 218 225 231 239 252 258 265 264
254 217 203 188 183 178 168 173 173 173 181 186 189 190 183 174 181 194 194 193 189 191 182 180 190 198 192 192 193 197 208 210 210 215 219 224 233 239 246 255 263 272 276
250 229 227 225 217 195 175 179 184 180 182 188 193 195 187 181 184 198 200 199 199 198 181 184 194 201 196 191 190 199 207 208 210 220 224 229 234 234 236 243 254 269 268
282 263 248 232 225 198 182 192 189 187 188 191 194 197 193 187 188 199 202 199 197 187 182 187 197 202 202 200 197 209 212 210 214 220 224 231 237 238 240 240 243 253 267
316 299 287 271 242 174 166 181 188 189 189 193 200 204 202 195 190 196 198 197 197 189 185 193 203 207 211 211 212 217 218 216 220 223 224 230 236 237 237 236 237 243 256
308 296 286 263 150 137 152 168 179 179 183 190 201 208 214 209 197 202 208 204 203 202 203 205 210 215 222 226 224 226 222 222 226 227 228 231 234 233 235 235 236 241 246
299 287 279 229 169 165 186 199 193 186 189 190 198 212 223 220 211 214 217 212 209 212 213 215 218 225 232 234 234 234 228 225 229 232 232 233 235 235 237 237 237 242 246
299 294 252 228 210 200 212 222 209 198 190 186 197 208 219 227 223 225 224 219 214 215 217 221 224 229 235 238 241 241 238 234 235 238 238 237 235 237 239 242 245 247 249
274 249 251 253 245 229 225 226 220 206 198 201 212 220 229 241 235 233 233 228 221 220 225 230 234 236 239 240 241 243 245 243 243 244 243 243 239 242 243 245 247 249 253
273 258 252 251 250 245 237 232 218 208 206 214 226 235 238 246 234 226 229 229 229 229 230 233 238 241 242 242 241 244 246 248 249 250 246 246 245 249 249 248 248 249 253
276 276 266 257 247 241 239 228 216 211 211 218 232 238 231 239 230 224 225 224 230 234 234 238 241 246 250 246 249 253 249 249 249 252 253 252 247 246 249 251 253 251 252
277 274 265 259 253 245 236 231 225 217 219 225 230 230 233 240 234 222 221 225 232 236 243 248 250 253 251 247 251 253 254 253 253 253 254 255 252 249 250 252 252 252 254
276 269 266 261 255 250 241 233 227 223 229 234 235 239 240 244 239 229 232 234 238 240 248 252 254 257 254 252 258 258 255 254 254 254 255 257 257 252 253 258 257 257 254
279 272 270 265 255 246 236 225 225 223 229 240 245 245 241 241 237 236 240 244 245 249 255 256 256 259 260 254 259 262 260 257 259 259 257 255 258 255 254 257 259 262 261
291 284 280 268 256 242 222 224 232 232 238 247 252 249 245 242 240 240 242 249 249 254 261 262 260 260 263 257 257 257 256 259 264 264 261 255 255 259 257 256 257 262 268
303 297 281 265 263 249 227 237 246 250 256 255 256 257 250 250 248 245 245 246 251 255 260 263 265 263 263 260 258 255 253 255 262 265 265 261 254 259 262 261 260 264 273
310 306 292 289 287 253 238 251 260 268 268 258 255 258 258 258 252 244 247 247 247 252 259 265 271 271 266 264 259 258 261 262 260 263 268 270 266 264 266 265 263 267 270
312 311 301 298 299 280 259 260 271 273 268 263 262 263 266 260 249 238 240 244 244 249 256 261 267 273 273 266 261 263 264 263 262 264 269 274 274 272 270 266 268 267 262
307 305 299 291 295 294 279 269 274 271 261 260 265 265 264 263 256 248 241 242 244 247 252 256 262 269 271 269 266 266 267 264 263 267 268 267 267 265 269 273 270 264 261
305 297 288 286 292 295 288 282 278 270 264 265 265 262 259 258 256 255 252 250 250 250 253 256 259 262 267 270 271 273 269 266 267 274 271 266 264 264 265 268 270 266 263
305 301 297 295 297 295 290 288 282 269 263 267 270 267 260 255 254 260 269 263 259 261 260 262 264 267 270 278 276 277 277 275 268 265 261 261 262 263 265 267 269 266 263
Height
1489 1489 1488 1489 1489 1489 1490 1490 1491 1492 1493 1493 1495 1496 1498 1499 1501 1502 1504 1505 1506 1507 1509 1510 1511 1512 1513 1514 1515 1516 1517 1517 1518 1519 1519 1519 1519 1519 1519 1519 1519 1519 1519
1486 1486 1486 1486 1486 1487 1487 1487 1488 1489 1490 1492 1493 1495 1496 1497 1499 1500 1501 1503 1504 1505 1507 1508 1508 1510 1511 1512 1513 1513 1514 1514 1516 1517 1517 1518 1519 1517 1516 1517 1517 1516 1516
1485 1484 1484 1484 1484 1485 1485 1486 1486 1487 1488 1490 1492 1493 1494 1495 1496 1497 1499 1501 1502 1503 1504 1505 1506 1507 1509 1509 1510 1511 1512 1512 1513 1514 1516 1516 1516 1515 1514 1514 1514 1514 1513
1483 1483 1483 1482 1483 1483 1484 1485 1486 1486 1487 1489 1490 1491 1492 1493 1494 1495 1497 1498 1500 1501 1502 1503 1504 1505 1506 1507 1508 1509 1509 1510 1510 1511 1512 1513 1513 1513 1512 1512 1511 1510 1510
1481 1481 1481 1481 1481 1482 1483 1483 1484 1485 1486 1487 1488 1489 1491 1492 1493 1494 1495 1496 1497 1498 1499 1501 1501 1502 1503 1504 1505 1506 1507 1507 1507 1508 1508 1509 1510 1510 1510 1509 1508 1507 1506
1480 1480 1480 1480 1480 1480 1481 1481 1482 1483 1484 1485 1487 1488 1489 1489 1491 1492 1493 1494 1495 1496 1497 1498 1498 1499 1500 1501 1502 1503 1503 1504 1504 1504 1505 1505 1506 1506 1506 1506 1505 1504 1503
1478 1478 1478 1478 1478 1478 1478 1479 1480 1481 1482 1484 1485 1486 1487 1488 1489 1490 1491 1492 1492 1493 1494 1495 1496 1497 1497 1498 1498 1499 1500 1500 1500 1501 1501 1502 1502 1502 1503 1502 1501 1500 1499
1477 1476 1476 1476 1476 1476 1477 1477 1479 1479 1481 1482 1483 1484 1485 1486 1487 1488 1489 1490 1490 1490 1491 1492 1493 1493 1494 1495 1495 1496 1496 1497 1497 1497 1497 1498 1498 1498 1498 1498 1498 1497 1496
1475 1475 1474 1474 1474 1474 1475 1476 1477 1478 1479 1480 1481 1482 1483 1483 1484 1486 1487 1487 1487 1487 1488 1489 1490 1490 1491 1491 1491 1492 1492 1493 1493 1493 1494 1494 1494 1494 1494 1494 1494 1495 1493
1474 1473 1472 1472 1473 1473 1473 1475 1475 1476 1477 1478 1479 1480 1481 1481 1482 1483 1484 1484 1484 1484 1485 1486 1486 1487 1487 1487 1488 1488 1488 1489 1489 1489 1489 1489 1490 1490 1490 1490 1490 1489 1489
1472 1472 1471 1471 1471 1471 1472 1473 1473 1474 1475 1476 1476 1477 1478 1479 1480 1480 1480 1481 1481 1482 1482 1482 1483 1483 1483 1484 1484 1484 1484 1485 1485 1485 1485 1485 1486 1485 1485 1485 1485 1484 1484
1471 1470 1470 1470 1470 1470 1470 1471 1471 1472 1473 1474 1474 1475 1476 1476 1476 1477 1478 1478 1478 1478 1479 1479 1479 1480 1480 1480 1480 1480 1480 1480 1481 1481 1481 1481 1481 1481 1481 1480 1480 1479 1479
1470 1469 1469 1468 1468 1468 1469 1469 1470 1471 1471 1472 1473 1473 1473 1474 1474 1474 1475 1475 1475 1475 1475 1476 1476 1476 1476 1477 1477 1476 1476 1476 1476 1477 1476 1476 1476 1476 1476 1475 1475 1475 1474
1469 1468 1468 1467 1467 1467 1467 1468 1468 1469 1469 1470 1470 1470 1471 1471 1471 1471 1471 1472 1472 1472 1472 1472 1472 1472 1472 1472 1472 1472 1472 1471 1472 1472 1472 1471 1471 1471 1471 1470 1470 1470 1469
1467 1466 1466 1466 1466 1466 1466 1466 1466 1467 1467 1468 1468 1468 1468 1468 1468 1468 1469 1469 1469 1469 1469 1469 1468 1468 1468 1468 1468 1468 1467 1467 1467 1467 1466 1466 1466 1466 1466 1465 1465 1465 1464
1465 1464 1464 1464 1463 1463 1463 1464 1464 1464 1465 1465 1465 1465 1465 1465 1465 1465 1466 1466 1466 1465 1465 1465 1464 1464 1464 1464 1464 1463 1463 1463 1462 1462 1461 1461 1460 1460 1460 1460 1460 1460 1459
1463 1462 1461 1461 1461 1460 1460 1461 1461 1461 1461 1462 1462 1462 1462 1462 1462 1462 1462 1462 1462 1462 1461 1461 1461 1460 1460 1460 1459 1459 1459 1458 1457 1457 1456 1456 1455 1455 1455 1454 1454 1453 1453
1461 1460 1459 1458 1458 1457 1457 1458 1458 1458 1458 1458 1458 1459 1459 1459 1459 1459 1459 1459 1458 1458 1458 1457 1457 1456 1455 1455 1455 1455 1454 1453 1453 1452 1451 1451 1450 1450 1450 1449 1448 1448 1447
1458 1457 1456 1456 1455 1455 1454 1454 1455 1455 1455 1455 1455 1455 1455 1455 1455 1455 1455 1455 1454 1454 1454 1453 1452 1452 1451 1451 1451 1451 1450 1449 1448 1447 1447 1446 1446 1445 1445 1444 1443 1442 1442
1455 1455 1454 1453 1452 1452 1452 1452 1452 1452 1452 1452 1451 1452 1451 1451 1451 1451 1451 1451 1450 1450 1450 1449 1449 1448 1448 1447 1447 1446 1445 1444 1444 1443 1442 1442 1441 1441 1440 1439 1439 1437 1437
1453 1452 1451 1450 1450 1449 1449 1449 1449 1448 1448 1448 1448 1448 1448 1448 1448 1448 1447 1447 1447 1446 1446 1445 1445 1444 1444 1443 1443 1442 1441 1440 1439 1438 1438 1437 1437 1436 1435 1435 1434 1433 1433
1451 1449 1448 1448 1447 1447 1447 1446 1446 1446 1446 1445 1445 1444 1444 1444 1444 1444 1443 1443 1443 1443 1442 1441 1441 1440 1440 1439 1438 1438 1437 1436 1435 1434 1434 1433 1432 1432 1431 1430 1429 1429 1428
1448 1447 1446 1445 1445 1444 1444 1443 1443 1443 1442 1442 1441 1441 1440 1440 1440 1440 1439 1439 1439 1439 1438 1438 1437 1436 1436 1435 1435 1434 1433 1432 1431 1431 1430 1429 1428 1427 1426 1426 1425 1424 1423
1446 1445 1444 1443 1443 1442 1441 1441 1440 1439 1439 1438 1437 1437 1437 1436 1436 1436 1436 1436 1435 1435 1435 1434 1433 1432 1432 1431 1431 1430 1429 1428 1427 1426 1426 1425 1424 1423 1422 1421 1420 1419 1419
1444 1443 1442 1441 1440 1439 1439 1438 1437 1436 1436 1435 1434 1434 1433 1433 1432 1432 1432 1432 1432 1432 1431 1430 1430 1429 1428 1428 1428 1427 1425 1424 1424 1422 1421 1420 1420 1418 1417 1416 1415 1414 1414
1441 1440 1439 1439 1438 1437 1436 1435 1434 1433 1433 1432 1431 1430 1430 1429 1429 1428 1428 1427 1428 1428 1427 1427 1426 1425 1425 1424 1423 1422 1421 1420 1420 1419 1417 1416 1415 1414 1413 1412 1410 1410 1409